EW4565 Weather Reports


Display with metric or nautical units.
time (UTC)temp
F
wind
direction
speed
MPH
gust
MPH
rain 1hr
in
rain 24hr
in
rain mn
in
humidity
%
barometer
mb
20260901192806 71 285 0.0 3.0 0.00 0.00 0.00 55 1008.4
20260901192306 70 285 0.0 3.0 0.00 0.00 0.00 54 1008.4
20260901191805 70 285 0.0 3.0 0.00 0.00 0.00 54 1008.5
20260901191304 70 285 0.0 3.0 0.00 0.00 0.00 54 1008.7
20260901190810 70 285 0.0 3.0 0.00 0.00 0.00 54 1008.7
20260901190306 70 285 0.0 3.0 0.00 0.00 0.00 54 1008.8
20260901185803 70 285 0.0 3.0 0.00 0.00 0.00 56 1008.9
20260901185306 70 285 0.0 3.0 0.00 0.00 0.00 54 1008.9
20260901184803 70 285 0.0 2.0 0.00 0.00 0.00 54 1009.0
20260901184306 69 285 0.0 2.0 0.00 0.00 0.00 57 1009.4
20260901184118 69 285 0.0 2.0 0.00 0.00 0.00 57 1009.5
20260901183303 69 286 0.0 3.0 0.00 0.00 0.00 59 1009.5
20260901182804 69 286 1.0 4.0 0.00 0.00 0.00 59 1009.5
20260901182622 69 286 1.0 4.0 0.00 0.00 0.00 59 1009.5
20260901181805 68 285 0.0 3.0 0.00 0.00 0.00 59 1009.4
20260901181305 68 285 0.0 3.0 0.00 0.00 0.00 59 1009.5
20260901180804 68 285 0.0 4.0 0.00 0.00 0.00 59 1009.7
20260901180304 68 285 0.0 4.0 0.00 0.00 0.00 60 1009.8
20260901175803 68 289 0.0 4.0 0.00 0.00 0.00 61 1009.8
20260901175623 67 289 0.0 4.0 0.00 0.00 0.00 60 1009.8
20260901175121 67 289 0.0 4.0 0.00 0.00 0.00 59 1010.0
20260901174307 67 289 0.0 3.0 0.00 0.00 0.00 60 1010.2
20260901173804 67 289 0.0 3.0 0.00 0.00 0.00 62 1010.4
20260901173305 67 289 0.0 2.0 0.00 0.00 0.00 62 1010.4
20260901172803 67 289 0.0 3.0 0.00 0.00 0.00 62 1010.4
20260901172618 67 289 0.0 3.0 0.00 0.00 0.00 61 1010.5
20260901171804 67 293 0.0 1.0 0.00 0.00 0.00 63 1010.5
20260901171304 66 293 0.0 1.0 0.00 0.00 0.00 62 1010.5
20260901170806 65 293 0.0 0.0 0.00 0.00 0.00 64 1010.5
20260901170624 65 293 0.0 2.0 0.00 0.00 0.00 65 1010.5
20260901165804 64 293 0.0 2.0 0.00 0.00 0.00 67 1010.6
20260901165306 64 293 0.0 2.0 0.00 0.00 0.00 69 1010.7
20260901164806 63 293 0.0 3.0 0.00 0.00 0.00 69 1010.8
20260901164304 63 293 0.0 3.0 0.00 0.00 0.00 68 1010.7
20260901163804 63 293 0.0 2.0 0.00 0.00 0.00 69 1010.8
20260901163307 63 293 0.0 2.0 0.00 0.00 0.00 68 1010.6
20260901163259 63 293 0.0 2.0 0.00 0.00 0.00 68 1010.8
20260901163254 63 293 0.0 2.0 0.00 0.00 0.00 68 1010.8
20260901161805 62 293 0.0 2.0 0.00 0.00 0.00 68 1010.8
20260901161259 62 293 0.0 1.0 0.00 0.00 0.00 68 1011.2
20260901161119 62 293 0.0 1.0 0.00 0.00 0.00 69 1011.2
20260901160300 61 293 0.0 1.0 0.00 0.00 0.00 68 1011.3
20260901155801 60 293 0.0 1.0 0.00 0.00 0.00 69 1011.4
20260901155259 60 293 0.0 2.0 0.00 0.00 0.00 69 1011.5
20260901154758 60 293 0.0 2.0 0.00 0.00 0.00 69 1011.5
20260901154451 59 293 0.0 2.0 0.00 0.00 0.00 70 1011.7
20260901154406 59 293 0.0 2.0 0.00 0.00 0.00 70 1011.6
20260901153300 59 293 0.0 1.0 0.00 0.00 0.00 70 1011.7
20260901152800 59 293 0.0 1.0 0.00 0.00 0.00 71 1011.8
20260901152254 58 293 0.0 1.0 0.00 0.00 0.00 71 1011.7
20260901151754 58 293 0.0 0.0 0.00 0.00 0.00 71 1011.7
20260901151438 57 293 0.0 0.0 0.00 0.00 0.00 73 1011.8
20260901151400 58 293 0.0 0.0 0.00 0.00 0.00 72 1011.7
20260901150256 57 293 0.0 0.0 0.00 0.00 0.00 75 1011.8
20260901145756 56 293 0.0 0.0 0.00 0.00 0.00 75 1011.8
20260901145633 56 293 0.0 0.0 0.00 0.00 0.00 77 1011.8
20260901144754 55 293 0.0 0.0 0.00 0.00 0.00 77 1011.8
20260901144249 55 293 0.0 0.0 0.00 0.00 0.00 78 1011.8
20260901143742 54 293 0.0 0.0 0.00 0.00 0.00 78 1011.8
20260901143243 54 293 0.0 0.0 0.00 0.00 0.00 80 1011.7
20260901143107 54 293 0.0 0.0 0.00 0.00 0.00 79 1011.8
20260901142240 54 293 0.0 0.0 0.00 0.00 0.00 79 1011.8
20260901141742 54 293 0.0 0.0 0.00 0.00 0.00 79 1011.8
20260901141424 53 293 0.0 0.0 0.00 0.00 0.00 80 1011.8
20260901141345 54 293 0.0 0.0 0.00 0.00 0.00 81 1011.8
20260901140555 53 293 0.0 0.0 0.00 0.00 0.00 80 1011.9
20260901135925 53 293 0.0 0.0 0.00 0.00 0.00 80 1011.8
20260901135844 53 293 0.0 0.0 0.00 0.00 0.00 80 1011.7
20260901134737 53 293 0.0 0.0 0.00 0.00 0.00 80 1011.7
20260901134236 53 293 0.0 0.0 0.00 0.00 0.00 80 1011.8
20260901133736 53 293 0.0 0.0 0.00 0.00 0.00 80 1011.8
20260901133234 53 293 0.0 0.0 0.00 0.00 0.00 81 1011.8
20260901132733 53 293 0.0 0.0 0.00 0.00 0.00 80 1011.6
20260901132231 53 293 0.0 0.0 0.00 0.00 0.00 80 1011.6
20260901131732 53 293 0.0 0.0 0.00 0.00 0.00 80 1011.5
20260901131711 53 293 0.0 0.0 0.00 0.00 0.00 79 1011.6
20260901131537 53 293 0.0 0.0 0.00 0.00 0.00 80 1011.5
20260901130234 53 293 0.0 0.0 0.00 0.00 0.00 79 1011.6
20260901125732 53 293 0.0 1.0 0.00 0.00 0.00 79 1011.5
20260901125233 53 293 0.0 1.0 0.00 0.00 0.00 79 1011.5
20260901124734 54 293 0.0 0.0 0.00 0.00 0.00 79 1011.5
20260901124233 54 293 0.0 0.0 0.00 0.00 0.00 78 1011.6
20260901123732 54 293 0.0 0.0 0.00 0.00 0.00 78 1011.5
20260901123231 54 293 0.0 0.0 0.00 0.00 0.00 78 1011.5
20260901122733 54 293 0.0 0.0 0.00 0.00 0.00 78 1011.4
20260901122232 54 293 0.0 0.0 0.00 0.00 0.00 78 1011.3
20260901122050 54 293 0.0 0.0 0.00 0.00 0.00 78 1011.3
20260901121234 54 293 0.0 0.0 0.00 0.00 0.00 78 1011.3
20260901120731 54 293 0.0 0.0 0.00 0.00 0.00 77 1011.3
20260901120553 55 293 0.0 0.0 0.00 0.00 0.00 78 1011.4
20260901115729 55 293 0.0 0.0 0.00 0.00 0.00 78 1011.3
20260901115230 55 293 0.0 0.0 0.00 0.00 0.00 77 1011.4
20260901114730 55 293 0.0 0.0 0.00 0.00 0.00 77 1011.3
20260901114229 55 293 0.0 0.0 0.00 0.00 0.00 78 1011.3
20260901113728 55 293 0.0 0.0 0.00 0.00 0.00 78 1011.3
20260901113229 55 293 0.0 0.0 0.00 0.00 0.00 77 1011.2
20260901112730 55 293 0.0 0.0 0.00 0.00 0.00 77 1011.2
20260901112232 55 293 0.0 0.0 0.00 0.00 0.00 78 1011.2
20260901111730 55 293 0.0 0.0 0.00 0.00 0.00 78 1011.3
20260901111229 55 293 0.0 0.0 0.00 0.00 0.00 78 1011.3
20260901111047 55 293 0.0 0.0 0.00 0.00 0.00 78 1011.3
20260901110229 55 293 0.0 0.0 0.00 0.00 0.00 78 1011.4
20260901105729 55 293 0.0 0.0 0.00 0.00 0.00 78 1011.3
20260901105229 55 293 0.0 0.0 0.00 0.00 0.00 78 1011.2
20260901104917 55 293 0.0 0.0 0.00 0.00 0.00 78 1011.2
20260901104830 55 293 0.0 0.0 0.00 0.00 0.00 78 1011.2
20260901103725 55 293 0.0 0.0 0.00 0.00 0.00 77 1011.2
20260901103542 55 293 0.0 0.0 0.00 0.00 0.00 77 1011.3
20260901103040 55 293 0.0 0.0 0.00 0.00 0.00 77 1011.2
20260901102219 55 293 0.0 0.0 0.00 0.00 0.00 77 1011.2
20260901102037 56 293 0.0 0.0 0.00 0.00 0.00 76 1011.2
20260901101218 56 293 0.0 0.0 0.00 0.00 0.00 76 1011.2
20260901100719 56 293 0.0 0.0 0.00 0.00 0.00 76 1011.2
20260901100217 56 293 0.0 0.0 0.00 0.00 0.00 75 1011.2
20260901095714 56 293 0.0 0.0 0.00 0.00 0.00 75 1011.2
20260901095214 56 293 0.0 0.0 0.00 0.00 0.00 76 1011.2
20260901094712 56 293 0.0 0.0 0.00 0.00 0.00 76 1011.1
20260901094210 57 293 0.0 0.0 0.00 0.00 0.00 77 1011.1
20260901094030 56 293 0.0 1.0 0.00 0.00 0.00 76 1011.1
20260901093208 56 293 0.0 1.0 0.00 0.00 0.00 76 1011.2
20260901092706 56 293 0.0 1.0 0.00 0.00 0.00 75 1011.2
20260901092204 56 293 0.0 1.0 0.00 0.00 0.00 75 1011.2
20260901091705 57 293 0.0 1.0 0.00 0.00 0.00 75 1011.2
20260901091204 57 293 0.0 0.0 0.00 0.00 0.00 75 1011.2
20260901090704 57 293 0.0 0.0 0.00 0.00 0.00 74 1011.2
20260901090206 57 293 0.0 0.0 0.00 0.00 0.00 74 1011.2
20260901085704 57 293 0.0 0.0 0.00 0.00 0.00 73 1011.1
20260901085205 57 293 0.0 0.0 0.00 0.00 0.00 74 1011.2
20260901084704 57 293 0.0 0.0 0.00 0.00 0.00 73 1011.2
20260901084206 57 293 0.0 0.0 0.00 0.00 0.00 73 1011.2
20260901083705 58 293 0.0 0.0 0.00 0.00 0.00 73 1011.2
20260901083204 58 293 0.0 0.0 0.00 0.00 0.00 73 1011.1
20260901082705 58 293 0.0 0.0 0.00 0.00 0.00 72 1011.1
20260901082204 58 293 0.0 0.0 0.00 0.00 0.00 72 1010.9
20260901081705 58 293 0.0 0.0 0.00 0.00 0.00 72 1010.9
20260901081203 58 293 0.0 0.0 0.00 0.00 0.00 72 1010.9
20260901080704 58 293 0.0 0.0 0.00 0.00 0.00 71 1010.9
20260901080205 58 293 0.0 0.0 0.00 0.00 0.00 71 1010.9
20260901075704 58 293 0.0 0.0 0.00 0.00 0.00 70 1010.9
20260901075345 59 293 0.0 0.0 0.00 0.00 0.00 70 1011.1
20260901075307 58 293 0.0 0.0 0.00 0.00 0.00 70 1011.1
20260901074528 59 293 0.0 0.0 0.00 0.00 0.00 70 1011.1
20260901073705 59 293 0.0 0.0 0.00 0.00 0.00 70 1011.1
20260901073205 59 293 0.0 0.0 0.00 0.00 0.00 70 1011.2
20260901073023 59 293 0.0 0.0 0.00 0.00 0.00 71 1011.2
20260901072206 59 293 0.0 0.0 0.00 0.00 0.00 71 1011.1
20260901072024 59 293 0.0 0.0 0.00 0.00 0.00 70 1011.1
20260901071204 59 293 0.0 0.0 0.00 0.00 0.00 69 1011.1
20260901071028 60 293 0.0 0.0 0.00 0.00 0.00 69 1011.1
20260901070204 60 293 0.0 0.0 0.00 0.00 0.00 69 1011.2
20260901065703 60 293 0.0 0.0 0.00 0.00 0.00 68 1011.2
20260901065205 60 293 0.0 0.0 0.00 0.00 0.00 67 1011.1
20260901064706 60 293 0.0 0.0 0.00 0.00 0.00 67 1011.1
20260901064204 60 293 0.0 0.0 0.00 0.00 0.00 67 1011.1
20260901064043 60 293 0.0 0.0 0.00 0.00 0.00 66 1011.1
20260901063203 61 293 0.0 0.0 0.00 0.00 0.00 67 1010.9
20260901063020 61 293 0.0 0.0 0.00 0.00 0.00 66 1011.1
20260901062204 61 293 0.0 0.0 0.00 0.00 0.00 67 1011.1
20260901061705 61 293 0.0 0.0 0.00 0.00 0.00 66 1011.1
20260901061203 61 293 0.0 0.0 0.00 0.00 0.00 67 1011.2
20260901060704 62 293 0.0 0.0 0.00 0.00 0.00 67 1011.2
20260901060206 62 293 0.0 0.0 0.00 0.00 0.00 67 1011.2
20260901055705 62 293 0.0 0.0 0.00 0.00 0.00 67 1011.3
20260901055204 62 293 0.0 0.0 0.00 0.00 0.00 67 1011.4
20260901054704 62 293 0.0 0.0 0.00 0.00 0.00 67 1011.4
20260901054526 62 293 0.0 0.0 0.00 0.00 0.00 67 1011.5
20260901053706 62 293 0.0 0.0 0.00 0.00 0.00 65 1011.5
20260901053206 62 293 0.0 0.0 0.00 0.00 0.00 65 1011.5
20260901052703 62 293 0.0 0.0 0.00 0.00 0.00 65 1011.5
20260901052205 62 293 0.0 0.0 0.00 0.00 0.00 64 1011.4
20260901051706 62 293 0.0 0.0 0.00 0.00 0.00 63 1011.4
20260901051524 62 293 0.0 0.0 0.00 0.00 0.00 62 1011.5
20260901050705 62 293 0.0 0.0 0.00 0.00 0.00 62 1011.4
20260901050205 63 293 0.0 0.0 0.00 0.00 0.00 62 1011.4
20260901045706 63 293 0.0 0.0 0.00 0.00 0.00 62 1011.4
20260901045205 63 293 0.0 0.0 0.00 0.00 0.00 62 1011.4
20260901044703 63 293 0.0 0.0 0.00 0.00 0.00 61 1011.5
20260901044203 64 293 0.0 0.0 0.00 0.00 0.00 61 1011.5
20260901043704 64 293 0.0 1.0 0.00 0.00 0.00 61 1011.5
20260901043359 64 293 0.0 1.0 0.00 0.00 0.00 60 1011.5
20260901043313 64 293 0.0 1.0 0.00 0.00 0.00 61 1011.5
20260901042210 64 293 0.0 1.0 0.00 0.00 0.00 60 1011.4
20260901042026 64 293 0.0 0.0 0.00 0.00 0.00 60 1011.5
20260901041202 64 293 0.0 0.0 0.00 0.00 0.00 61 1011.4
20260901041024 63 293 0.0 0.0 0.00 0.00 0.00 61 1011.5
20260901040202 63 293 0.0 0.0 0.00 0.00 0.00 62 1011.5
20260901035701 64 293 0.0 0.0 0.00 0.00 0.00 63 1011.4
20260901035201 64 293 0.0 0.0 0.00 0.00 0.00 64 1011.5
20260901034700 64 293 0.0 0.0 0.00 0.00 0.00 65 1011.5
20260901034525 64 293 0.0 0.0 0.00 0.00 0.00 65 1011.5
20260901033702 64 293 0.0 0.0 0.00 0.00 0.00 64 1011.5
20260901033200 65 293 0.0 0.0 0.00 0.00 0.00 64 1011.4
20260901033021 65 293 0.0 0.0 0.00 0.00 0.00 63 1011.4
20260901032201 65 293 0.0 0.0 0.00 0.00 0.00 62 1011.3
20260901031702 66 293 0.0 0.0 0.00 0.00 0.00 61 1011.2
20260901031200 66 293 0.0 0.0 0.00 0.00 0.00 58 1011.3
20260901031014 67 293 0.0 0.0 0.00 0.00 0.00 57 1011.1
20260901030201 67 293 0.0 0.0 0.00 0.00 0.00 57 1011.1
20260901025700 67 293 0.0 0.0 0.00 0.00 0.00 56 1011.1
20260901025202 68 293 0.0 0.0 0.00 0.00 0.00 55 1011.1
20260901024702 68 293 0.0 0.0 0.00 0.00 0.00 55 1010.9
20260901024200 69 293 0.0 0.0 0.00 0.00 0.00 54 1010.9
20260901023703 69 293 0.0 0.0 0.00 0.00 0.00 52 1010.9
20260901023200 69 293 0.0 0.0 0.00 0.00 0.00 52 1010.9
20260901022701 69 293 0.0 3.0 0.00 0.00 0.00 51 1010.9
20260901022203 70 293 0.0 3.0 0.00 0.00 0.00 51 1010.9
20260901022008 70 293 0.0 3.0 0.00 0.00 0.00 50 1010.9
20260901021204 70 293 0.0 3.0 0.00 0.00 0.00 49 1010.9
20260901020707 71 293 0.0 3.0 0.00 0.00 0.00 47 1010.9
20260901020204 71 293 0.0 3.0 0.00 0.00 0.00 46 1010.9
20260901015705 71 293 0.0 3.0 0.00 0.00 0.00 46 1010.9
20260901015205 72 293 0.0 2.0 0.00 0.00 0.00 45 1011.1
20260901014707 72 293 0.0 2.0 0.00 0.00 0.00 45 1011.2
20260901014532 73 293 0.0 4.0 0.00 0.00 0.00 44 1011.2
20260901013705 73 293 0.0 4.0 0.00 0.00 0.00 44 1011.2
20260901013530 74 293 0.0 4.0 0.00 0.00 0.00 43 1011.2
20260901012706 74 293 0.0 3.0 0.00 0.00 0.00 44 1011.2
20260901012204 75 296 0.0 4.0 0.00 0.00 0.00 44 1011.3
20260901011703 75 293 0.0 4.0 0.00 0.00 0.00 44 1011.3
20260901011203 75 293 0.0 3.0 0.00 0.00 0.00 42 1011.4
20260901011023 76 293 0.0 3.0 0.00 0.00 0.00 43 1011.5
20260901010154 76 293 0.0 4.0 0.00 0.00 0.00 43 1011.5
20260901005652 76 293 0.0 4.0 0.00 0.00 0.00 43 1011.5
20260901005152 76 294 1.0 7.0 0.00 0.00 0.00 43 1011.5
20260901004652 76 295 1.0 7.0 0.00 0.00 0.00 42 1011.6
20260901004154 76 301 1.0 4.0 0.00 0.00 0.00 42 1011.6
20260901003653 76 301 1.0 4.0 0.00 0.00 0.00 43 1011.5
20260901003153 77 297 1.0 4.0 0.00 0.00 0.00 41 1011.7
20260901002654 77 299 1.0 4.0 0.00 0.00 0.00 42 1011.6
20260901002153 77 295 1.0 7.0 0.00 0.00 0.00 41 1011.6
20260901001652 78 276 1.0 8.0 0.00 0.00 0.00 40 1011.6
20260901001350 79 287 0.0 5.0 0.00 0.00 0.00 39 1011.7
20260901001304 78 307 1.0 8.0 0.00 0.00 0.00 39 1011.7
20260901000149 79 280 1.0 6.0 0.00 0.00 0.00 40 1011.8
20260831235649 79 280 1.0 6.0 0.00 0.00 0.00 39 1011.8
20260831235520 79 291 0.0 4.0 0.00 0.00 0.00 40 1011.8
20260831234645 79 289 0.0 5.0 0.00 0.00 0.00 40 1011.8
20260831234149 78 241 0.0 5.0 0.00 0.00 0.00 40 1011.8
20260831233646 78 241 1.0 5.0 0.00 0.00 0.00 41 1011.8
20260831233148 78 232 1.0 5.0 0.00 0.00 0.00 41 1011.9